This is the latest recevied weather packets stored in our database for station/object IW3HBX-3. If no packets are shown the sender has not sent any weather packets the latest 10 day(s).
| Time | Temp. | Humidity | Pressure | Rain* | Wind** | Luminosity | Snow |
|---|---|---|---|---|---|---|---|
| 1777613143 | 12.22° C | 49% | 1028.2 hPa | 0 mm | - | 78 W/m² | - |
| 1777612843 | 12.22° C | 49% | 1028.1 hPa | 0 mm | - | 70 W/m² | - |
| 1777612543 | 12.22° C | 49% | 1028.2 hPa | 0 mm | - | 65 W/m² | - |
| 1777612243 | 11.67° C | 49% | 1028.2 hPa | 0 mm | - | 62 W/m² | - |
| 1777611942 | 11.67° C | 50% | 1028 hPa | 0 mm | - | 58 W/m² | - |
| 1777611642 | 11.67° C | 50% | 1028.1 hPa | 0 mm | - | 51 W/m² | - |
| 1777611342 | 11.67° C | 50% | 1028.1 hPa | 0 mm | - | 54 W/m² | - |
| 1777611042 | 11.11° C | 51% | 1028 hPa | 0 mm | - | 47 W/m² | - |
| 1777610742 | 11.11° C | 53% | 1028 hPa | 0 mm | - | 37 W/m² | - |
| 1777610442 | 10.56° C | 54% | 1028 hPa | 0 mm | - | 32 W/m² | - |
| 1777610142 | 10.56° C | 54% | 1027.9 hPa | 0 mm | - | 27 W/m² | - |
| 1777609842 | 10° C | 54% | 1027.8 hPa | 0 mm | - | 22 W/m² | - |
| 1777609542 | 10° C | 55% | 1027.7 hPa | 0 mm | - | 17 W/m² | - |
| 1777609242 | 9.44° C | 56% | 1027.8 hPa | 0 mm | - | 13 W/m² | - |
| 1777608942 | 9.44° C | 58% | 1027.7 hPa | 0 mm | - | 10 W/m² | - |
| 1777608642 | 9.44° C | 57% | 1027.7 hPa | 0 mm | - | 7 W/m² | - |
| 1777608342 | 9.44° C | 57% | 1027.7 hPa | 0 mm | - | 5 W/m² | - |
| 1777608041 | 9.44° C | 57% | 1027.7 hPa | 0 mm | - | 3 W/m² | - |
| 1777607741 | 9.44° C | 57% | 1027.7 hPa | 0 mm | - | 2 W/m² | - |
| 1777607441 | 9.44° C | 57% | 1027.7 hPa | 0 mm | - | 1 W/m² | - |
| 1777607141 | 10° C | 57% | 1027.7 hPa | 0 mm | - | 1 W/m² | - |
| 1777606841 | 10° C | 58% | 1027.8 hPa | 0 mm | - | 0 W/m² | - |
| 1777606541 | 10° C | 58% | 1027.7 hPa | 0 mm | - | 0 W/m² | - |
| 1777606241 | 10° C | 57% | 1027.7 hPa | 0 mm | - | 0 W/m² | - |
| 1777605941 | 10° C | 57% | 1027.7 hPa | 0 mm | - | 0 W/m² | - |
* Rain latest hour (hover to see other rain measurements)
** Current wind speed in m/s (hover to see current wind gust speed)